Location: Aldenham
(51.6667°N, 0.3500°W)
Time: 17:21:56
(UTC+00:00)

RESURS DK-1 - Pass Details

Date: 18 November 2025
Orbit: 524 x 535 km, 69.9° (Epoch: 08 December)

Event Time Altitude Azimuth Distance (km) Brightness Sun altitude
Rises 16:51:02 0° 329° (NNW) 2,700 6.0 -6.9°
Reaches altitude 10° 16:53:15 10° 333° (NNW) 1,804 5.0 -7.2°
Maximum altitude 16:57:15 62° 54° (NE) 608 2.3 -7.8°
Drops below altitude 10° 17:01:13 10° 137° (SE) 1,790 4.7 -8.4°
Sets 17:03:24 0° 140° (SE) 2,676 5.6 -8.7°
